Location: ??????
(41.3164°N, 22.6615°E)
Time: 19:18:14
(UTC+00:00)

Daily predictions for brighter satellites

Satellite Brightness Start Highest point End
(mag) Time Altitude Azimuth Time Altitude Azimuth Time Altitude Azimuth
Meteor 1-24 Rocket 3.9 16:02:18 10° N 16:08:02 90° W 16:13:57 10° S
Cosmos 2227 Rocket 2.2 16:03:14 10° NNW 16:08:53 65° ENE 16:14:29 10° SE
Timation 2 Rocket 4.3 16:05:42 10° NNW 16:12:28 55° ENE 16:19:01 10° SE
Cosmos 1356 3.7 16:12:37 10° N 16:15:53 42° ENE 16:19:07 10° SSE
CZ-2C R/B 3.2 16:10:42 10° NNE 16:15:59 40° E 16:21:10 10° SSE
Landsat 5 3.9 16:14:21 10° NNE 16:18:31 45° E 16:22:46 10° S
Radarsat Rocket 4.5 16:14:32 10° S 16:20:36 73° WSW 16:27:23 10° NNW
Okean 2 Rocket 4.3 16:16:33 10° SSW 16:20:48 47° WNW 16:25:07 10° N
SKYMED 2 3.8 16:16:36 10° NNE 16:20:50 50° E 16:25:03 10° S
Aureole 2 4.0 16:19:25 10° NNW 16:22:22 71° ENE 16:25:32 10° SSE
Cosmos 1726 3.5 16:19:00 10° SSW 16:22:27 42° WNW 16:25:55 10° N
Cosmos 1470 3.5 16:19:35 10° SSW 16:23:30 58° W 16:27:26 10° N
Okean O Rocket 1.8 16:19:31 10° SE 16:23:41 48° ENE 16:27:52 10° N
IRIS 3.6 16:22:01 10° W 16:24:21 70° S 16:26:41 11° ESE
Cosmos 2084 Rocket 4.4 16:20:54 10° WSW 16:24:35 42° NW 16:28:19 10° NNE
SMAP 4.3 16:22:15 10° S 16:26:43 46° W 16:31:13 10° NNW
SL-19 R/B 4.4 16:23:12 10° NNE 16:29:01 89° WNW 16:34:36 10° SSW
Cosmos 1758 3.3 16:25:59 10° S 16:29:58 89° E 16:33:58 10° N
YAOGAN 1 3.6 16:27:34 10° ESE 16:31:05 25° ENE 16:34:37 10° NNE
CZ-4 R/B 2.5 16:28:21 10° ESE 16:31:28 23° ENE 16:34:40 10° NNE
Okean-O 4.2 16:30:07 11° E 16:32:32 16° ENE 16:35:09 10° NNE
Cosmos 1703 4.2 16:30:36 10° NNE 16:33:58 27° ENE 16:37:19 10° SE
Cosmos 2082 3.9 16:28:30 10° NNW 16:33:59 51° ENE 16:39:26 10° SE
GPS 2-04 Rocket1 4.0 16:30:53 10° WSW 16:34:11 29° S 16:37:23 10° SE
Cosmos 1455 Rocket 3.9 16:31:24 10° SSE 16:35:10 29° E 16:39:00 10° NNE
Cosmos 1727 Rocket 3.9 16:30:57 10° N 16:37:11 75° E 16:43:21 10° SSE
Spot 2 4.4 16:34:27 10° SE 16:38:12 38° ENE 16:42:03 10° N
Cosmos 2150 Rocket 4.1 16:33:33 10° SSW 16:38:59 81° ESE 16:44:24 10° NNE
Cosmos 1953 2.6 16:36:52 10° SSE 16:40:42 45° E 16:44:35 10° NNE
Meteor 1-21 Rocket 4.5 16:36:45 10° N 16:42:26 50° ENE 16:48:09 10° SSE
H-2A R/B 2.9 16:40:44 10° NE 16:44:10 25° E 16:47:36 10° SSE
ATLAS 3B R/B 3.0 16:38:41 10° SW 16:45:09 65° NW 16:51:55 10° NNE
Tiangong 3.4 16:44:40 10° SSE 16:45:51 12° SE 16:46:24 11° SE
H-2A R/B 2.4 16:44:18 10° S 16:49:34 74° WSW 16:55:01 10° NNW
CZ-4B R/B 3.8 16:51:52 10° S 16:57:26 65° WSW 17:03:05 10° NNW
Cosmos 1300 3.8 16:55:40 10° SE 17:03:17 - NNE 16:57:58 23° ESE
Okean 1 Rocket 4.3 16:56:24 10° SSW 17:00:32 43° WNW 17:04:42 10° N
NOSS 3-1 (C) 4.4 16:56:59 10° SSE 17:00:11 19° ESE 17:00:11 19° ESE
ATLAS 5 CENTAUR R/B 1.4 16:57:41 10° SSW 17:01:24 51° ESE 17:04:05 19° NE
Cosmos 405 Rocket 3.0 17:00:04 10° N 17:03:52 45° ENE 17:07:30 11° SSE
Feng Yun 1-1 Rocket 4.1 17:03:04 10° SSE 17:08:32 81° ENE 17:14:11 10° NNW
Cosmos 2369 4.0 17:03:06 10° SSW 17:08:44 68° WNW 17:14:24 10° NNE
COSMO-SKYMED 1 3.7 17:04:45 10° N 17:08:54 46° WNW 17:13:03 10° SW
Cosmos 967 Rocket 4.5 17:03:16 10° NNW 17:09:44 68° ENE 17:15:22 14° SE
Cosmos 1605 Rocket 4.5 17:05:47 10° SSE 17:11:19 35° E 17:16:55 10° NNE
SL-8 R/B 3.9 17:09:24 10° SW 17:14:01 51° SE 17:15:46 33° E
IRS-1C Rocket 4.2 17:09:22 10° SSE 17:14:28 53° ENE 17:19:35 10° N
Cosmos 1000 Rocket 4.4 17:11:41 10° N 17:17:51 88° W 17:24:04 10° S
HJ-1C 3.1 17:17:52 47° SE 17:18:36 65° ENE 17:21:49 10° N
H-2A R/B 2.7 17:15:14 10° S 17:19:40 76° WSW 17:23:59 10° NNW
SL-08 RB Rocket 3.7 17:16:32 10° S 17:21:03 83° WSW 17:25:38 10° NNW
Cosmos 1892 Rocket 3.7 17:18:30 10° N 17:22:59 77° W 17:27:24 10° S
Cosmos 1980 Rocket 2.5 17:17:26 10° SSW 17:23:03 68° WNW 17:28:44 10° NNE
Cosmos 489 Rocket 4.4 17:18:59 10° NNW 17:25:08 60° ENE 17:29:10 22° SE
Cosmos 2263 Rocket 2.2 17:23:34 10° NNW 17:29:03 56° ENE 17:31:02 37° ESE
CSL-04 Debris 4.2 17:26:57 29° SE 17:29:27 52° ENE 17:34:41 10° N
Cosmos 1269 Rocket 4.0 17:27:09 10° NNW 17:32:23 58° ENE 17:34:02 40° SE
ARGOS 4.1 17:28:48 10° S 17:33:59 48° W 17:39:13 10° NNW
X-37B 1.3 17:33:02 10° W 17:35:50 48° NW 17:35:50 48° NW
Genesis I 4.4 17:34:53 10° NW 17:38:47 44° WSW 17:41:01 22° S
CZ-2C R/B 2.9 17:40:01 10° SW 17:41:24 18° SSW 17:41:24 18° SSW
Cosmos 724 4.3 17:36:58 10° NNW 17:42:49 57° NE 17:43:53 50° E
CSL-04 Rocket 3.6 17:48:32 45° SE 17:50:15 73° ENE 17:55:48 10° N
Cosmos 371 Rocket 3.1 17:45:27 10° S 17:50:05 71° SE 17:50:05 71° SE
Cosmos 1607 4.3 17:44:38 10° NW 17:50:48 61° WSW 17:54:59 21° S
MetOp-A 4.0 17:49:39 32° SSE 17:52:16 87° ENE 17:57:40 10° NNW
Cosmos 1626 Rocket 4.2 17:48:03 10° N 17:51:03 43° N 17:51:03 43° N
Cosmos 2278 4.4 17:47:03 10° SW 17:52:34 52° WNW 17:58:08 10° NNE
Iridium 4 Rocket 3.9 17:49:12 10° NNW 17:53:29 52° W 17:58:06 10° SSW
Cosmos 1934 Rocket 4.3 17:50:35 10° SSW 17:56:40 64° W 18:02:43 10° N
Gbstr 26 Del rocket 4.4 17:51:56 10° NW 17:59:23 69° NNE 18:01:28 51° E
Meteor 1-11 4.2 17:58:58 10° NNW 18:04:33 78° W 18:06:55 36° S
Cosmos 1844 Rocket 4.4 18:00:20 10° N 18:02:41 20° NNE 18:02:41 20° NNE
CZ-4 R/B 3.5 18:03:01 10° SSW 18:06:20 26° W 18:09:43 10° NW
YAOGAN 1 4.5 18:03:18 10° SSW 18:07:03 29° W 18:10:51 10° NW
Okean-O 3.3 18:07:42 44° SW 18:08:34 52° W 18:12:54 10° NNW
SL-16 R/B 2.3 18:04:09 10° SSW 18:08:50 62° S 18:08:50 62° S
H-2A R/B 4.1 18:16:39 10° NNW 18:20:03 26° WNW 18:23:27 10° SW
Cosmos 2322 Rocket 4.2 18:22:15 10° SSW 18:23:24 17° SSW 18:23:24 17° SSW
Lacrosse 4 Rocket 4.3 18:35:53 10° NNW 18:36:04 11° NNW 18:36:04 11° NNW
Cosmos 839 Rocket 4.4 18:37:15 10° NNW 18:43:48 67° NNW 18:43:48 67° NNW
ATLAS 5 CENTAUR R/B 4.0 18:43:31 10° W 18:45:39 17° NW 18:45:39 17° NW
Cosmos 2263 Rocket 4.3 19:08:34 10° NW 19:12:28 20° W 19:12:46 20° WSW
